Overview Statistics Trail Chart Weather Telemetry Raw packets
 

This is the latest recevied weather packets stored in our database for station/object KB7STN. If no packets are shown the sender has not sent any weather packets the latest 10 day(s).

<< 97 98 99 100 101 102 103 >>
Time Temp. Humidity Pressure Rain* Wind** Luminosity Snow
1787974299 21.67° C 61% 1019.6 hPa 0 mm - - -
1787973999 21.67° C 60% 1019.6 hPa 0 mm - - -
1787973699 22.22° C 60% 1019.4 hPa 0 mm - - -
1787973399 22.22° C 60% 1019.3 hPa 0 mm - - -
1787973099 22.22° C 60% 1019.2 hPa 0 mm - - -
1787972799 22.78° C 60% 1019.2 hPa 0 mm - - -
1787972499 22.78° C 57% 1019.1 hPa 0 mm - - -
1787972199 23.33° C 53% 1018.9 hPa 0 mm - - -
1787971899 23.89° C 53% 1018.8 hPa 0 mm - - -
1787971599 24.44° C 48% 1018.6 hPa 0 mm - - -
1787971299 24.44° C 47% 1018.6 hPa 0 mm - - -
1787970999 24.44° C 45% 1018.6 hPa 0 mm - - -
1787970699 24.44° C 44% 1018.3 hPa 0 mm - - -
1787970399 24.44° C 44% 1018.3 hPa 0 mm - - -
1787970099 24.44° C 43% 1018 hPa 0 mm - - -
1787969799 24.44° C 44% 1017.8 hPa 0 mm - - -
1787969499 23.89° C 44% 1017.6 hPa 0 mm - - -
1787969199 23.89° C 45% 1017.2 hPa 0 mm - - -
1787968899 23.89° C 44% 1016.9 hPa 0 mm - - -
1787968599 23.89° C 45% 1016.9 hPa 0 mm - - -
1787968299 23.89° C 45% 1016.9 hPa 0 mm - - -
1787967999 24.44° C 45% 1017 hPa 0 mm - - -
1787967699 24.44° C 44% 1017.2 hPa 0 mm - - -
1787967399 24.44° C 44% 1017.1 hPa 0 mm - - -
1787967099 24.44° C 44% 1016.9 hPa 0 mm - - -

* Rain latest hour (hover to see other rain measurements)
** Current wind speed in m/s (hover to see current wind gust speed)